Skip Page Navigation
NASA JPL Caltech
NASA Logo - Jet Propulsion Laboratory + View the NASA Portal
+ Near-Earth Object (NEO) Program
Search JPL
JPL Home Earth Solar System Stars & Galaxies Technology
JPL Solar System Dynamics
BODIES ORBITS EPHEMERIDES TOOLS PHYSICAL DATA DISCOVERY FAQ SITE MAP
JPL Small-Body Database Browser
Search: [ help ]  
(1999 VF22)
Classification: Apollo [NEO, PHA]          SPK-ID: 3024029
Ephemeris | Orbit Diagram | Orbital Elements | Physical Parameters | Close-Approach Data ]

[ hide orbit diagram ]
Orbit Diagram
Note: Make sure you have Java enabled on your browser to see the applet. This applet is provided as a 3D orbit visualization tool. The applet was implemented using 2-body methods, and hence should not be used for determining accurate long-term trajectories (over several years or decades) or planetary encounter circumstances. For accurate long-term ephemerides, please instead use our Horizons system.
Orbit Viewer

Additional Notes: the orbits shown in the applet are color coded. The planets are white lines, and the asteroid/comet is a blue line. The bright white line indicates the portion of the orbit that is above the ecliptic plane, and the darker portion is below the ecliptic plane. Likewise for the asteroid/comet orbit, the light blue indicates the portion above the ecliptic plane, and the dark blue the portion below the ecliptic plane.

Orbit Viewer applet originally written and kindly provided by Osamu Ajiki (AstroArts), and further modified by Ron Baalke (JPL).


Orbital Elements at Epoch 2456400.5 (2013-Apr-18.0) TDB
Reference: JPL 18 (heliocentric ecliptic J2000)
 Element Value Uncertainty (1-sigma)   Units 
e .7387990535293246 1.501e-07  
a 1.312767658912803 6.64e-09 AU
q .3428961550041168 1.9834e-07 AU
i 3.906450084165824 1.6765e-05 deg
node 3.671158907656397 0.00028766 deg
peri 271.4905493801845 0.00025494 deg
M 11.47836542935439 2.6565e-05 deg
tp 2456382.983078789336
(2013-Mar-31.48307879)
4.053e-05 JED
period 549.389342467884
1.50
4.1682e-06
1.141e-08
d
yr
n .6552729952548083 4.9716e-09 deg/d
Q 2.282639162821488 1.1546e-08 AU
  Orbit Determination Parameters
   # obs. used (total)      104  
   data-arc span      4836 days (13.24 yr)  
   first obs. used      1999-11-10  
   last obs. used      2013-02-05  
   planetary ephem.      DE405  
   SB-pert. ephem.      SB405-CPV-2  
   condition code      0  
   fit RMS      .58559  
   data source      ORB  
   producer      Otto Matic  
   solution date      2013-Apr-29 11:41:44  

Additional Information
 Earth MOID = .0347008 AU 
 T_jup = 4.639 
[ show covariance matrix ]

Ephemeris | Orbit Diagram | Orbital Elements | Physical Parameters | Close-Approach Data ]

Physical Parameter Table
Parameter Symbol Value Units Sigma Reference Notes
absolute magnitude H 20.527 mag .66127 18 autocmod 2.5c

[ show close-approach data ]
Ephemeris | Orbit Diagram | Orbital Elements | Physical Parameters | Close-Approach Data ]
ABOUT SSD CREDITS/AWARDS PRIVACY/COPYRIGHT GLOSSARY LINKS
FirstGov 2013-May-20 05:27 UT
(server date/time)  
NASA Home Page
Site Manager:   Donald K. Yeomans
Webmaster  Alan B. Chamberlin